Location: Unnamed
(49.2205°N, 28.4120°E)
Time: 15:37:51
(UTC+03:00)

ISS - Pass Details

Date: 20 April 2026
Orbit: 414 x 424 km, 51.6° (Epoch: 18 May)

Event Time Altitude Azimuth Distance (km) Brightness Sun altitude
Exits shadow 04:53:56 - 189° (S) 1,590 -1.2 -11.3°
Reaches altitude 10° 04:54:15 10° 185° (S) 1,494 -1.3 -11.3°
Maximum altitude 04:56:39 18° 139° (SE) 1,092 -1.6 -11.0°
Drops below altitude 10° 04:59:04 10° 94° (E) 1,506 -0.1 -10.6°
Sets 05:01:36 0° 75° (ENE) 2,377 1.8 -10.3°
